(157962) = 2000 EX122 = 2001 SS192

Discovered at Socorro on 2000-03-11 by LINEAR.

Orbit

Orbit type: Main Belt

Note: WebGL enabled browser required.

epoch2024-03-31.0
epoch JD2460400.5
perihelion date2021-01-30.26295
perihelion JD2459244.76295
argument of perihelion (°)76.86303
ascending node (°)169.02933
inclination (°)5.84295
eccentricity0.1030339
perihelion distance (AU)2.0198069
Tisserand w.r.t. Jupiter3.6
ΔV w.r.t. Earth (km/sec)9.0
semimajor axis (AU)2.2518208
mean anomaly (°)337.10263
mean daily motion (°/day)0.29167760
aphelion distance (AU)2.484
period (years)3.38
P-vector [x]-0.40748936
P-vector [y]-0.87233675
P-vector [z]-0.27015000
Q-vector [x]0.91300443
Q-vector [y]-0.38288759
Q-vector [z]-0.14078356
absolute magnitude17.22
phase slope0.15
uncertainty0
referenceMPEC 2024-E11
observations used392
oppositions14
arc length (days)8365
first opposition used2000
last opposition used2023
residual rms (arc-secs)0.75
perturbers coarse indicatorM-v
perturbers precise indicator003Ek
first observation date used2000-03-03.0
last observation date used2023-01-27.0
computer nameMPCLINUX
JD of orbit computation2456877.871087
perihelion JD uncertainty (days)1.1229E-04
argument of perihelion uncertainty (°)5.8039E-05
ascending node uncertainty (°)4.4023E-05
inclination uncertainty (°)6.4433E-06
eccentricity uncertainty 5.3218E-08
perihelion distance uncertainty (AU)1.1314E-07
Minimum Orbit Intersection Distances (in AU)
for orbit epoch: 2460400.5, reference: E2024-E11
Mercury1.56081
Venus1.29888
Earth1.01634
Mars0.46312
Jupiter2.52591
Saturn6.5833
Uranus16.2061
Neptune27.3685

Observations

401 total observations over interval: 2000 03 03.29075 – 2023 01 27.247315
These data are available for download (format description).

Date (UT) J2000 RA J2000 Dec Magn Location Ref
2000 03 03.29075 11 23 08.61 +03 29 47.5 19.3 V 691 – Steward Observatory, Kitt Peak-Spacewatch MPS 15703
2000 03 03.31194 11 23 07.50 +03 29 59.2 19.2 V 691 – Steward Observatory, Kitt Peak-Spacewatch MPS 15703
2000 03 03.32851 11 23 06.46 +03 30 08.0 19.3   704 – Lincoln Laboratory ETS, New Mexico MPS 15703
2000 03 03.33314 11 23 06.29 +03 30 11.2 19.3 V 691 – Steward Observatory, Kitt Peak-Spacewatch MPS 15703
2000 03 03.35858 11 23 04.88 +03 30 25.7 19.6   704 – Lincoln Laboratory ETS, New Mexico MPS 15703
2000 03 03.37309 11 23 04.09 +03 30 33.6 19.5   704 – Lincoln Laboratory ETS, New Mexico MPS 15703
2000 03 03.38741 11 23 03.33 +03 30 42.5 19.9   704 – Lincoln Laboratory ETS, New Mexico MPS 15703
2000 03 03.40159 11 23 02.56 +03 30 50.1 19.6   704 – Lincoln Laboratory ETS, New Mexico MPS 15703
2000 03 11.25018 11 15 59.31 +04 45 12.6 19.4   704 – Lincoln Laboratory ETS, New Mexico MPS 12445
2000 03 11.26453 11 15 58.47 +04 45 20.0 19.9   704 – Lincoln Laboratory ETS, New Mexico MPS 12445
2000 03 11.27712 11 15 57.79 +04 45 27.5 20.1   704 – Lincoln Laboratory ETS, New Mexico MPS 12445
2000 03 11.29027 11 15 56.99 +04 45 35.5 20.0   704 – Lincoln Laboratory ETS, New Mexico MPS 12445
2000 03 11.30304 11 15 56.36 +04 45 41.4 20.1   704 – Lincoln Laboratory ETS, New Mexico MPS 12445
2000 03 11.31482 11 15 55.80 +04 45 48.2 19.0 R 699 – Lowell Observatory-LONEOS MPS 15703
2000 03 11.33673 11 15 54.41 +04 46 01.8   699 – Lowell Observatory-LONEOS MPS 15703
2000 03 11.35862 11 15 53.14 +04 46 13.9   699 – Lowell Observatory-LONEOS MPS 15703
2000 03 11.38063 11 15 51.86 +04 46 26.6   699 – Lowell Observatory-LONEOS MPS 15703
2000 03 12.35325 11 14 58.84 +04 55 44.2 19.4 V 691 – Steward Observatory, Kitt Peak-Spacewatch MPS 12445
2000 03 12.37447 11 14 57.63 +04 55 56.4 19.3 V 691 – Steward Observatory, Kitt Peak-Spacewatch MPS 12445
2000 03 12.39554 11 14 56.44 +04 56 08.5 19.2 V 691 – Steward Observatory, Kitt Peak-Spacewatch MPS 12445
2000 04 05.14961 10 57 02.52 +08 13 17.2 19.1   704 – Lincoln Laboratory ETS, New Mexico MPS 37533
2000 04 05.16414 10 57 02.02 +08 13 23.6 18.7   704 – Lincoln Laboratory ETS, New Mexico MPS 37533
2000 04 05.17868 10 57 01.53 +08 13 28.0 19.2   704 – Lincoln Laboratory ETS, New Mexico MPS 37533
2001 08 26.32729 23 55 46.15 -00 11 05.6 20.4 V 691 – Steward Observatory, Kitt Peak-Spacewatch MPS 37533
2001 08 26.35621 23 55 44.94 -00 11 17.9 21.0 V 691 – Steward Observatory, Kitt Peak-Spacewatch MPS 37533
2001 08 26.38073 23 55 43.90 -00 11 28.9 21.1 V 691 – Steward Observatory, Kitt Peak-Spacewatch MPS 37533
2001 09 19.25178 23 35 55.58 -03 38 06.6 19.7   704 – Lincoln Laboratory ETS, New Mexico MPS 36733
2001 09 19.26592 23 35 54.78 -03 38 14.6 20.3   704 – Lincoln Laboratory ETS, New Mexico MPS 36733
2001 09 19.28019 23 35 54.00 -03 38 22.2 19.7   704 – Lincoln Laboratory ETS, New Mexico MPS 36733
2001 09 19.29432 23 35 53.20 -03 38 30.3 20.0   704 – Lincoln Laboratory ETS, New Mexico MPS 36733
2001 09 19.30845 23 35 52.35 -03 38 37.6 20.1   704 – Lincoln Laboratory ETS, New Mexico MPS 36733
2001 09 20.29422 23 34 59.84 -03 47 21.6 20.0 V 291 – LPL/Spacewatch II MPS 36733
2001 09 20.32131 23 34 58.34 -03 47 35.9 20.1 V 291 – LPL/Spacewatch II MPS 36733
2001 09 20.34807 23 34 56.87 -03 47 50.2 20.2 V 291 – LPL/Spacewatch II MPS 36733
2001 09 21.25226 23 34 09.19 -03 55 48.9 19.6   704 – Lincoln Laboratory ETS, New Mexico MPS 36733
2001 09 21.26640 23 34 08.42 -03 55 56.9 19.7   704 – Lincoln Laboratory ETS, New Mexico MPS 36733
2001 09 21.28054 23 34 07.66 -03 56 03.0 20.0   704 – Lincoln Laboratory ETS, New Mexico MPS 36733
2001 09 21.29469 23 34 06.86 -03 56 11.2 19.5   704 – Lincoln Laboratory ETS, New Mexico MPS 36733
2001 09 21.30884 23 34 06.08 -03 56 19.1 19.6   704 – Lincoln Laboratory ETS, New Mexico MPS 36733
2006 01 31.207426 04 06 53.868 +13 20 15.69 21.72 V 645 – Apache Point-Sloan Digital Sky Survey MPS 390073
2006 01 31.210898 04 06 53.928 +13 20 16.35 22.55   645 – Apache Point-Sloan Digital Sky Survey MPS 390073
2006 02 02.12623 04 07 34.82 +13 28 00.2 21.3 V G96 – Mt. Lemmon Survey MPS 161584
2006 02 02.13310 04 07 34.96 +13 28 01.2 21.7 V G96 – Mt. Lemmon Survey MPS 161584
2006 02 02.13988 04 07 35.14 +13 28 02.3 21.2 V G96 – Mt. Lemmon Survey MPS 161584
2006 02 02.14677 04 07 35.25 +13 28 04.8 21.5 V G96 – Mt. Lemmon Survey MPS 161584
2007 02 26.43587 14 26 06.00 -10 43 33.8 20.1 V G96 – Mt. Lemmon Survey MPS 201412
2007 02 26.44483 14 26 06.32 -10 43 33.2 20.4 V G96 – Mt. Lemmon Survey MPS 201412
2007 02 26.45379 14 26 06.61 -10 43 31.9 20.6 V G96 – Mt. Lemmon Survey MPS 201412
2007 02 26.46268 14 26 06.90 -10 43 30.9 20.5 V G96 – Mt. Lemmon Survey MPS 201412
2007 03 13.42306 14 31 26.90 -09 57 01.8 20.7 V G96 – Mt. Lemmon Survey MPS 202858
2007 03 13.43218 14 31 26.90 -09 56 57.0 19.0 V G96 – Mt. Lemmon Survey MPS 202858
2007 03 13.44131 14 31 26.94 -09 56 56.3 19.0 V G96 – Mt. Lemmon Survey MPS 202858
2007 04 14.23860 14 19 26.04 -06 12 15.2 19.8 V 691 – Steward Observatory, Kitt Peak-Spacewatch MPS 206779
2007 04 14.25628 14 19 25.16 -06 12 06.5 19.9 V 691 – Steward Observatory, Kitt Peak-Spacewatch MPS 206779
2007 04 14.27395 14 19 24.29 -06 11 57.3 19.9 V 691 – Steward Observatory, Kitt Peak-Spacewatch MPS 206779
2007 04 19.24349 14 15 17.83 -05 29 28.8 20.0 V 691 – Steward Observatory, Kitt Peak-Spacewatch MPS 206779
2007 04 19.27388 14 15 16.19 -05 29 13.2 19.8 V 691 – Steward Observatory, Kitt Peak-Spacewatch MPS 206779
2007 04 19.29226 14 15 15.19 -05 29 03.9 19.8 V 691 – Steward Observatory, Kitt Peak-Spacewatch MPS 206779
2007 04 20.30967 14 14 22.56 -05 20 29.4 19.1   704 – Lincoln Laboratory ETS, New Mexico MPS 207964
2007 04 20.32801 14 14 21.53 -05 20 20.4 19.6   704 – Lincoln Laboratory ETS, New Mexico MPS 207964
2007 04 20.33724 14 14 21.10 -05 20 15.0 19.6   704 – Lincoln Laboratory ETS, New Mexico MPS 207964
2007 04 20.34682 14 14 20.54 -05 20 10.5 19.7   704 – Lincoln Laboratory ETS, New Mexico MPS 207964
2007 05 06.20591 14 00 40.03 -03 21 38.5   691 – Steward Observatory, Kitt Peak-Spacewatch MPS 208789
2007 05 06.22476 14 00 39.07 -03 21 31.3   691 – Steward Observatory, Kitt Peak-Spacewatch MPS 208789
2007 05 06.24361 14 00 38.13 -03 21 24.8   691 – Steward Observatory, Kitt Peak-Spacewatch MPS 208789
2007 05 09.19586 13 58 20.78 -03 04 11.2 19.2 R 699 – Lowell Observatory-LONEOS MPS 208789
2007 05 09.21960 13 58 19.63 -03 04 04.3   699 – Lowell Observatory-LONEOS MPS 208789
2007 05 09.24339 13 58 18.47 -03 03 57.3   699 – Lowell Observatory-LONEOS MPS 208789
2007 05 09.26715 13 58 17.41 -03 03 50.0   699 – Lowell Observatory-LONEOS MPS 208789
2007 05 10.20362 13 57 35.87 -02 58 46.9 19.9 V 691 – Steward Observatory, Kitt Peak-Spacewatch MPS 208789
2007 05 10.21681 13 57 35.26 -02 58 42.8 19.9 V 691 – Steward Observatory, Kitt Peak-Spacewatch MPS 208789
2007 05 10.22999 13 57 34.64 -02 58 38.6 19.9 V 691 – Steward Observatory, Kitt Peak-Spacewatch MPS 208789
2007 05 12.15998 13 56 12.39 -02 48 55.7 20.2 V 691 – Steward Observatory, Kitt Peak-Spacewatch MPS 208789
2007 05 12.17056 13 56 11.91 -02 48 52.9 20.1 V 691 – Steward Observatory, Kitt Peak-Spacewatch MPS 208789
2007 05 12.18113 13 56 11.45 -02 48 49.9 20.0 V 691 – Steward Observatory, Kitt Peak-Spacewatch MPS 208789
2008 09 22.31907 02 03 42.41 +07 36 49.4 20.8 V 691 – Steward Observatory, Kitt Peak-Spacewatch MPS 257626
2008 09 22.34010 02 03 41.66 +07 36 40.3 20.7 V 691 – Steward Observatory, Kitt Peak-Spacewatch MPS 257626
2008 09 22.35769 02 03 40.97 +07 36 34.3 20.5 V 691 – Steward Observatory, Kitt Peak-Spacewatch MPS 257626
2008 10 08.28656 01 51 39.43 +05 37 55.2 20.2 V 691 – Steward Observatory, Kitt Peak-Spacewatch MPS 260164
2008 10 08.30415 01 51 38.46 +05 37 46.6 20.4 V 691 – Steward Observatory, Kitt Peak-Spacewatch MPS 260164
2008 10 08.32175 01 51 37.45 +05 37 38.6 20.2 V 691 – Steward Observatory, Kitt Peak-Spacewatch MPS 260164
2008 10 23.30685 01 37 30.57 +03 42 02.0 20.2 V G96 – Mt. Lemmon Survey MPS 261186
2008 10 23.31435 01 37 30.10 +03 41 58.7 20.1 V G96 – Mt. Lemmon Survey MPS 261186
2008 10 23.32191 01 37 29.71 +03 41 55.8 20.2 V G96 – Mt. Lemmon Survey MPS 261187
